Time,TemperatureF,DewpointF,PressureIn,WindDirection,WindDirectionDegrees,WindSpeedMPH,WindSpeedGustMPH,Humidity,HourlyPrecipIn,Conditions,Clouds,dailyrainin,SoftwareType,DateUTC
2013-08-03 00:02:00,73.0,70.0,-100.00,ENE,68,5.0,-999.0,90,-99.99,,,-99.99,,2013-08-03 05:02:00,
2013-08-03 00:22:00,73.0,70.0,-100.00,NE,45,4.0,-999.0,90,-99.99,,,-99.99,,2013-08-03 05:22:00,
2013-08-03 00:32:00,72.0,70.0,-100.00,NE,45,4.0,-999.0,91,-99.99,,,-99.99,,2013-08-03 05:32:00,
2013-08-03 00:42:00,72.0,70.0,-100.00,NE,45,4.0,-999.0,91,-99.99,,,-99.99,,2013-08-03 05:42:00,
2013-08-03 00:52:00,72.0,70.0,-100.00,NE,45,9.0,-999.0,92,-99.99,,,-99.99,,2013-08-03 05:52:00,
2013-08-03 01:02:00,72.0,69.0,-100.00,NE,45,11.0,-999.0,91,-99.99,,,-99.99,,2013-08-03 06:02:00,
2013-08-03 01:12:00,72.0,69.0,-100.00,NE,45,11.0,-999.0,91,-99.99,,,-99.99,,2013-08-03 06:12:00,
2013-08-03 01:22:00,71.0,68.0,-100.00,NE,45,10.0,-999.0,90,-99.99,,,-99.99,,2013-08-03 06:22:00,
2013-08-03 01:32:00,70.0,66.0,-100.00,NE,45,11.0,-999.0,88,-99.99,,,-99.99,,2013-08-03 06:32:00,
2013-08-03 01:42:00,70.0,66.0,-100.00,NE,45,11.0,-999.0,88,-99.99,,,-99.99,,2013-08-03 06:42:00,
2013-08-03 01:52:00,69.0,65.0,-100.00,ENE,68,9.0,-999.0,87,-99.99,,,-99.99,,2013-08-03 06:52:00,
2013-08-03 02:02:00,69.0,65.0,-100.00,ENE,68,11.0,-999.0,87,-99.99,,,-99.99,,2013-08-03 07:02:00,
2013-08-03 02:12:00,69.0,65.0,-100.00,ENE,68,11.0,-999.0,87,-99.99,,,-99.99,,2013-08-03 07:12:00,
2013-08-03 02:22:00,69.0,65.0,-100.00,ENE,68,11.0,-999.0,87,-99.99,,,-99.99,,2013-08-03 07:22:00,
2013-08-03 02:32:00,68.0,64.0,-100.00,NE,45,9.0,-999.0,87,-99.99,,,-99.99,,2013-08-03 07:32:00,
2013-08-03 02:43:00,68.0,64.0,-100.00,NE,45,9.0,-999.0,87,-99.99,,,-99.99,,2013-08-03 07:43:00,
2013-08-03 02:53:00,67.0,63.0,-100.00,ENE,68,11.0,-999.0,87,-99.99,,,-99.99,,2013-08-03 07:53:00,
2013-08-03 03:02:00,67.0,63.0,-100.00,ENE,68,9.0,-999.0,89,-99.99,,,-99.99,,2013-08-03 08:02:00,
2013-08-03 03:11:00,67.0,63.0,-100.00,ENE,68,9.0,-999.0,89,-99.99,,,-99.99,,2013-08-03 08:11:00,
2013-08-03 03:22:00,66.0,63.0,-100.00,NE,45,8.0,-999.0,90,-99.99,,,-99.99,,2013-08-03 08:22:00,
2013-08-03 03:32:00,65.0,62.0,-100.00,NE,45,9.0,-999.0,90,-99.99,,,-99.99,,2013-08-03 08:32:00,
2013-08-03 03:43:00,65.0,62.0,-100.00,NE,45,9.0,-999.0,90,-99.99,,,-99.99,,2013-08-03 08:43:00,
2013-08-03 03:52:00,65.0,62.0,-100.00,ENE,68,9.0,-999.0,88,-99.99,,,-99.99,,2013-08-03 08:52:00,
2013-08-03 04:02:00,65.0,61.0,-100.00,ENE,68,8.0,-999.0,87,-99.99,,,-99.99,,2013-08-03 09:02:00,
2013-08-03 04:12:00,65.0,61.0,-100.00,ENE,68,8.0,-999.0,87,-99.99,,,-99.99,,2013-08-03 09:12:00,
2013-08-03 04:22:00,65.0,61.0,-100.00,ENE,68,8.0,-999.0,86,-99.99,,,-99.99,,2013-08-03 09:22:00,
2013-08-03 04:32:00,65.0,61.0,-100.00,ENE,68,8.0,-999.0,86,-99.99,,,-99.99,,2013-08-03 09:32:00,
2013-08-03 04:43:00,65.0,61.0,-100.00,ENE,68,8.0,-999.0,86,-99.99,,,-99.99,,2013-08-03 09:43:00,
2013-08-03 04:53:00,64.0,60.0,-100.00,NE,45,9.0,-999.0,86,-99.99,,,-99.99,,2013-08-03 09:53:00,
2013-08-03 05:02:00,64.0,60.0,-100.00,ENE,68,10.0,-999.0,86,-99.99,,,-99.99,,2013-08-03 10:02:00,
2013-08-03 05:12:00,64.0,60.0,-100.00,ENE,68,10.0,-999.0,86,-99.99,,,-99.99,,2013-08-03 10:12:00,
2013-08-03 05:22:00,64.0,59.0,-100.00,ENE,68,9.0,-999.0,85,-99.99,,,-99.99,,2013-08-03 10:22:00,
2013-08-03 05:32:00,64.0,59.0,-100.00,ENE,68,10.0,-999.0,85,-99.99,,,-99.99,,2013-08-03 10:32:00,
2013-08-03 05:42:00,64.0,59.0,-100.00,ENE,68,10.0,-999.0,85,-99.99,,,-99.99,,2013-08-03 10:42:00,
2013-08-03 05:53:00,63.0,59.0,-100.00,NE,45,9.0,-999.0,86,-99.99,,,-99.99,,2013-08-03 10:53:00,
2013-08-03 06:02:00,63.0,59.0,-100.00,NE,45,6.0,-999.0,88,-99.99,,,-99.99,,2013-08-03 11:02:00,
2013-08-03 06:12:00,63.0,59.0,-100.00,NE,45,6.0,-999.0,88,-99.99,,,-99.99,,2013-08-03 11:12:00,
2013-08-03 06:22:00,63.0,60.0,-100.00,ENE,68,9.0,-999.0,89,-99.99,,,-99.99,,2013-08-03 11:22:00,
2013-08-03 06:32:00,63.0,59.0,-100.00,ENE,68,8.0,-999.0,89,-99.99,,,-99.99,,2013-08-03 11:32:00,
2013-08-03 06:43:00,63.0,59.0,-100.00,ENE,68,8.0,-999.0,89,-99.99,,,-99.99,,2013-08-03 11:43:00,
2013-08-03 06:52:00,62.0,59.0,-100.00,ENE,68,8.0,-999.0,90,-99.99,,,-99.99,,2013-08-03 11:52:00,
2013-08-03 07:02:00,62.0,60.0,-100.00,NE,45,8.0,-999.0,91,-99.99,,,-99.99,,2013-08-03 12:02:00,
2013-08-03 07:12:00,62.0,60.0,-100.00,NE,45,8.0,-999.0,91,-99.99,,,-99.99,,2013-08-03 12:12:00,
2013-08-03 07:22:00,62.0,60.0,-100.00,NE,45,7.0,-999.0,91,-99.99,,,-99.99,,2013-08-03 12:22:00,
2013-08-03 07:33:00,63.0,60.0,-100.00,ENE,68,7.0,-999.0,91,-99.99,,,-99.99,,2013-08-03 12:33:00,
2013-08-03 07:43:00,63.0,60.0,-100.00,ENE,68,7.0,-999.0,91,-99.99,,,-99.99,,2013-08-03 12:43:00,
2013-08-03 07:52:00,64.0,61.0,-100.00,NE,45,7.0,-999.0,89,-99.99,,,-99.99,,2013-08-03 12:52:00,
2013-08-03 08:02:00,65.0,60.0,-100.00,ENE,68,7.0,-999.0,86,-99.99,,,-99.99,,2013-08-03 13:02:00,
2013-08-03 08:12:00,65.0,60.0,-100.00,ENE,68,7.0,-999.0,86,-99.99,,,-99.99,,2013-08-03 13:12:00,
2013-08-03 08:22:00,66.0,60.0,-100.00,ENE,68,11.0,-999.0,82,-99.99,,,-99.99,,2013-08-03 13:22:00,
2013-08-03 08:32:00,66.0,60.0,-100.00,East,90,10.0,-999.0,81,-99.99,,,-99.99,,2013-08-03 13:32:00,
2013-08-03 08:43:00,66.0,60.0,-100.00,East,90,10.0,-999.0,81,-99.99,,,-99.99,,2013-08-03 13:43:00,
2013-08-03 08:52:00,67.0,60.0,-100.00,ENE,68,9.0,-999.0,80,-99.99,,,-99.99,,2013-08-03 13:52:00,
2013-08-03 09:02:00,67.0,60.0,-100.00,ENE,68,10.0,-999.0,76,-99.99,,,-99.99,,2013-08-03 14:02:00,
2013-08-03 09:12:00,67.0,60.0,-100.00,ENE,68,10.0,-999.0,76,-99.99,,,-99.99,,2013-08-03 14:12:00,
2013-08-03 09:22:00,68.0,59.0,-100.00,East,90,10.0,-999.0,74,-99.99,,,-99.99,,2013-08-03 14:22:00,
2013-08-03 09:33:00,68.0,60.0,-100.00,ENE,68,9.0,-999.0,73,-99.99,,,-99.99,,2013-08-03 14:33:00,
2013-08-03 09:42:00,68.0,60.0,-100.00,ENE,68,9.0,-999.0,73,-99.99,,,-99.99,,2013-08-03 14:42:00,
2013-08-03 09:52:00,68.0,59.0,-100.00,ENE,68,11.0,-999.0,71,-99.99,,,-99.99,,2013-08-03 14:52:00,
2013-08-03 10:02:00,69.0,59.0,-100.00,ENE,68,11.0,-999.0,69,-99.99,,,-99.99,,2013-08-03 15:02:00,
2013-08-03 10:22:00,71.0,59.0,-100.00,East,90,11.0,-999.0,65,-99.99,,,-99.99,,2013-08-03 15:22:00,
2013-08-03 10:32:00,72.0,58.0,-100.00,ENE,68,14.0,-999.0,61,-99.99,,,-99.99,,2013-08-03 15:32:00,
2013-08-03 10:43:00,72.0,58.0,-100.00,ENE,68,14.0,-999.0,61,-99.99,,,-99.99,,2013-08-03 15:43:00,
2013-08-03 10:53:00,72.0,59.0,-100.00,East,90,11.0,-999.0,63,-99.99,,,-99.99,,2013-08-03 15:53:00,
2013-08-03 11:02:00,73.0,59.0,-100.00,East,90,15.0,-999.0,62,-99.99,,,-99.99,,2013-08-03 16:02:00,
2013-08-03 11:23:00,74.0,60.0,-100.00,East,90,13.0,-999.0,62,-99.99,,,-99.99,,2013-08-03 16:23:00,
2013-08-03 11:33:00,76.0,61.0,-100.00,ENE,68,12.0,-999.0,60,-99.99,,,-99.99,,2013-08-03 16:33:00,
2013-08-03 11:43:00,76.0,61.0,-100.00,ENE,68,12.0,-999.0,60,-99.99,,,-99.99,,2013-08-03 16:43:00,
2013-08-03 11:53:00,76.0,61.0,-100.00,East,90,14.0,-999.0,59,-99.99,,,-99.99,,2013-08-03 16:53:00,
2013-08-03 12:02:00,76.0,62.0,-100.00,ENE,68,12.0,-999.0,61,-99.99,,,-99.99,,2013-08-03 17:02:00,
2013-08-03 12:22:00,76.0,62.0,-100.00,ENE,68,11.0,-999.0,62,-99.99,,,-99.99,,2013-08-03 17:22:00,
2013-08-03 12:32:00,78.0,64.0,-100.00,East,90,8.0,-999.0,61,-99.99,,,-99.99,,2013-08-03 17:32:00,
2013-08-03 12:43:00,78.0,64.0,-100.00,East,90,8.0,-999.0,61,-99.99,,,-99.99,,2013-08-03 17:43:00,
2013-08-03 12:52:00,79.0,64.0,-100.00,ENE,68,13.0,-999.0,60,-99.99,,,-99.99,,2013-08-03 17:52:00,
2013-08-03 13:02:00,80.0,64.0,-100.00,ENE,68,12.0,-999.0,59,-99.99,,,-99.99,,2013-08-03 18:02:00,
2013-08-03 13:12:00,80.0,64.0,-100.00,ENE,68,12.0,-999.0,59,-99.99,,,-99.99,,2013-08-03 18:12:00,
2013-08-03 13:22:00,80.0,64.0,-100.00,ENE,68,13.0,-999.0,58,-99.99,,,-99.99,,2013-08-03 18:22:00,
2013-08-03 13:32:00,80.0,65.0,-100.00,ENE,68,9.0,-999.0,59,-99.99,,,-99.99,,2013-08-03 18:32:00,
2013-08-03 13:42:00,80.0,65.0,-100.00,ENE,68,9.0,-999.0,59,-99.99,,,-99.99,,2013-08-03 18:42:00,
2013-08-03 13:53:00,82.0,66.0,-100.00,ENE,68,11.0,-999.0,59,-99.99,,,-99.99,,2013-08-03 18:53:00,
2013-08-03 14:02:00,82.0,66.0,-100.00,ENE,68,11.0,-999.0,57,-99.99,,,-99.99,,2013-08-03 19:02:00,
2013-08-03 14:12:00,82.0,66.0,-100.00,ENE,68,11.0,-999.0,57,-99.99,,,-99.99,,2013-08-03 19:12:00,
2013-08-03 14:22:00,82.0,65.0,-100.00,ENE,68,14.0,-999.0,57,-99.99,,,-99.99,,2013-08-03 19:22:00,
2013-08-03 14:32:00,81.0,64.0,-100.00,ENE,68,13.0,-999.0,57,-99.99,,,-99.99,,2013-08-03 19:32:00,
2013-08-03 14:43:00,81.0,64.0,-100.00,ENE,68,13.0,-999.0,57,-99.99,,,-99.99,,2013-08-03 19:43:00,
2013-08-03 14:52:00,81.0,65.0,-100.00,ENE,68,13.0,-999.0,58,-99.99,,,-99.99,,2013-08-03 19:52:00,
2013-08-03 15:02:00,79.0,64.0,-100.00,NE,45,10.0,-999.0,60,-99.99,,,-99.99,,2013-08-03 20:02:00,
2013-08-03 15:12:00,79.0,64.0,-100.00,NE,45,10.0,-999.0,60,-99.99,,,-99.99,,2013-08-03 20:12:00,
2013-08-03 15:22:00,81.0,65.0,-100.00,ENE,68,12.0,-999.0,58,-99.99,,,-99.99,,2013-08-03 20:22:00,
2013-08-03 15:32:00,80.0,64.0,-100.00,NE,45,14.0,-999.0,58,-99.99,,,-99.99,,2013-08-03 20:32:00,
2013-08-03 15:42:00,80.0,64.0,-100.00,NE,45,14.0,-999.0,58,-99.99,,,-99.99,,2013-08-03 20:42:00,
2013-08-03 15:52:00,81.0,64.0,-100.00,NE,45,13.0,-999.0,56,-99.99,,,-99.99,,2013-08-03 20:52:00,
2013-08-03 16:02:00,81.0,65.0,-100.00,NE,45,11.0,-999.0,57,-99.99,,,-99.99,,2013-08-03 21:02:00,
2013-08-03 16:12:00,81.0,65.0,-100.00,NE,45,11.0,-999.0,57,-99.99,,,-99.99,,2013-08-03 21:12:00,
2013-08-03 16:22:00,81.0,65.0,-100.00,NE,45,10.0,-999.0,57,-99.99,,,-99.99,,2013-08-03 21:22:00,
2013-08-03 16:32:00,81.0,64.0,-100.00,NE,45,12.0,-999.0,56,-99.99,,,-99.99,,2013-08-03 21:32:00,
2013-08-03 16:42:00,81.0,64.0,-100.00,NE,45,12.0,-999.0,56,-99.99,,,-99.99,,2013-08-03 21:42:00,
2013-08-03 16:52:00,81.0,65.0,-100.00,NE,45,11.0,-999.0,56,-99.99,,,-99.99,,2013-08-03 21:52:00,
2013-08-03 17:02:00,82.0,64.0,-100.00,ENE,68,12.0,-999.0,54,-99.99,,,-99.99,,2013-08-03 22:02:00,
2013-08-03 17:12:00,82.0,64.0,-100.00,ENE,68,12.0,-999.0,54,-99.99,,,-99.99,,2013-08-03 22:12:00,
2013-08-03 17:22:00,83.0,64.0,-100.00,East,90,8.0,-999.0,53,-99.99,,,-99.99,,2013-08-03 22:22:00,
2013-08-03 17:33:00,83.0,64.0,-100.00,East,90,11.0,-999.0,52,-99.99,,,-99.99,,2013-08-03 22:33:00,
2013-08-03 17:43:00,83.0,64.0,-100.00,East,90,11.0,-999.0,52,-99.99,,,-99.99,,2013-08-03 22:43:00,
2013-08-03 17:52:00,81.0,64.0,-100.00,ESE,113,11.0,-999.0,56,-99.99,,,-99.99,,2013-08-03 22:52:00,
2013-08-03 18:02:00,80.0,65.0,-100.00,SE,135,10.0,-999.0,59,-99.99,,,-99.99,,2013-08-03 23:02:00,
2013-08-03 18:12:00,80.0,65.0,-100.00,SE,135,10.0,-999.0,59,-99.99,,,-99.99,,2013-08-03 23:12:00,
2013-08-03 18:22:00,80.0,65.0,-100.00,SE,135,11.0,-999.0,60,-99.99,,,-99.99,,2013-08-03 23:22:00,
2013-08-03 18:32:00,80.0,66.0,-100.00,SE,135,6.0,-999.0,63,-99.99,,,-99.99,,2013-08-03 23:32:00,
2013-08-03 18:42:00,80.0,66.0,-100.00,SE,135,6.0,-999.0,63,-99.99,,,-99.99,,2013-08-03 23:42:00,
2013-08-03 18:52:00,80.0,67.0,-100.00,SE,135,8.0,-999.0,64,-99.99,,,-99.99,,2013-08-03 23:52:00,
2013-08-03 19:02:00,80.0,67.0,-100.00,SSE,158,6.0,-999.0,64,-99.99,,,-99.99,,2013-08-04 00:02:00,
2013-08-03 19:12:00,80.0,67.0,-100.00,SSE,158,6.0,-999.0,64,-99.99,,,-99.99,,2013-08-04 00:12:00,
2013-08-03 19:22:00,79.0,67.0,-100.00,ENE,68,6.0,-999.0,65,-99.99,,,-99.99,,2013-08-04 00:22:00,
2013-08-03 19:32:00,79.0,67.0,-100.00,ENE,68,6.0,-999.0,65,-99.99,,,-99.99,,2013-08-04 00:32:00,
2013-08-03 19:42:00,79.0,67.0,-100.00,ENE,68,6.0,-999.0,65,-99.99,,,-99.99,,2013-08-04 00:42:00,
2013-08-03 19:52:00,79.0,67.0,-100.00,East,90,5.0,-999.0,67,-99.99,,,-99.99,,2013-08-04 00:52:00,
2013-08-03 20:02:00,78.0,67.0,-100.00,NE,45,6.0,-999.0,68,-99.99,,,-99.99,,2013-08-04 01:02:00,
2013-08-03 20:12:00,78.0,67.0,-100.00,NE,45,6.0,-999.0,68,-99.99,,,-99.99,,2013-08-04 01:12:00,
2013-08-03 20:22:00,77.0,67.0,-100.00,NE,45,6.0,-999.0,70,-99.99,,,-99.99,,2013-08-04 01:22:00,
2013-08-03 20:32:00,76.0,67.0,-100.00,NE,45,8.0,-999.0,73,-99.99,,,-99.99,,2013-08-04 01:32:00,
2013-08-03 20:42:00,76.0,67.0,-100.00,NE,45,8.0,-999.0,73,-99.99,,,-99.99,,2013-08-04 01:42:00,
2013-08-03 20:53:00,76.0,67.0,-100.00,NE,45,9.0,-999.0,74,-99.99,,,-99.99,,2013-08-04 01:53:00,
2013-08-03 21:02:00,75.0,66.0,-100.00,ENE,68,9.0,-999.0,74,-99.99,,,-99.99,,2013-08-04 02:02:00,
2013-08-03 21:12:00,75.0,66.0,-100.00,ENE,68,9.0,-999.0,74,-99.99,,,-99.99,,2013-08-04 02:12:00,
2013-08-03 21:22:00,74.0,65.0,-100.00,ENE,68,8.0,-999.0,74,-99.99,,,-99.99,,2013-08-04 02:22:00,
2013-08-03 21:32:00,73.0,63.0,-100.00,NE,45,11.0,-999.0,71,-99.99,,,-99.99,,2013-08-04 02:32:00,
2013-08-03 21:42:00,73.0,63.0,-100.00,NE,45,11.0,-999.0,71,-99.99,,,-99.99,,2013-08-04 02:42:00,
2013-08-03 21:52:00,72.0,63.0,-100.00,NE,45,10.0,-999.0,71,-99.99,,,-99.99,,2013-08-04 02:52:00,
2013-08-03 22:02:00,71.0,62.0,-100.00,NE,45,9.0,-999.0,72,-99.99,,,-99.99,,2013-08-04 03:02:00,
2013-08-03 22:11:00,71.0,62.0,-100.00,NE,45,9.0,-999.0,72,-99.99,,,-99.99,,2013-08-04 03:11:00,
2013-08-03 22:22:00,71.0,62.0,-100.00,NE,45,9.0,-999.0,73,-99.99,,,-99.99,,2013-08-04 03:22:00,
2013-08-03 22:32:00,70.0,61.0,-100.00,ENE,68,9.0,-999.0,73,-99.99,,,-99.99,,2013-08-04 03:32:00,
2013-08-03 22:42:00,70.0,61.0,-100.00,ENE,68,9.0,-999.0,73,-99.99,,,-99.99,,2013-08-04 03:42:00,
2013-08-03 22:52:00,70.0,61.0,-100.00,ENE,68,7.0,-999.0,74,-99.99,,,-99.99,,2013-08-04 03:52:00,
2013-08-03 23:02:00,69.0,61.0,-100.00,ENE,68,7.0,-999.0,75,-99.99,,,-99.99,,2013-08-04 04:02:00,
2013-08-03 23:12:00,69.0,61.0,-100.00,ENE,68,7.0,-999.0,75,-99.99,,,-99.99,,2013-08-04 04:12:00,
2013-08-03 23:22:00,69.0,61.0,-100.00,ENE,68,7.0,-999.0,76,-99.99,,,-99.99,,2013-08-04 04:22:00,
2013-08-03 23:32:00,69.0,61.0,-100.00,ENE,68,7.0,-999.0,75,-99.99,,,-99.99,,2013-08-04 04:32:00,
2013-08-03 23:42:00,69.0,61.0,-100.00,ENE,68,7.0,-999.0,75,-99.99,,,-99.99,,2013-08-04 04:42:00,
2013-08-03 23:52:00,69.0,61.0,-100.00,ENE,68,8.0,-999.0,73,-99.99,,,-99.99,,2013-08-04 04:52:00,